Regional Weather Roundup
Issued by NWS

Home | Current Version | Previous Version | Text Only | Print | Product List | Glossary On
Versions: 1 2 3 4 5 6 7 8 9 10 11 12 13 14 15 16 17 18 19 20 21 22 23 24 25 26 27 28 29 30 31 32 33 34 35 36 37 38 39 40 41 42 43 44 45 46 47 48 49 50
000
ASUS44 KMEG 191510
RWRTN
TENNESSEE HOURLY STATE WEATHER ROUNDUP
NATIONAL WEATHER SERVICE MEMPHIS TN
1000 AM CDT SAT AUG 19 2017

TNZ002-004-019-021-049-052-054-088>092-191600-
WEST TENNESSEE

CITY           SKY/WX    TMP DP  RH WIND       PRES   REMARKS
MEMPHIS INTL   MOSUNNY   85  72  65 W8        30.00R HX  91
NWS MEMPHIS      N/A     83 N/A N/A MISG        N/A
JACKSON        SUNNY     84  74  71 VRB5      29.99S HX  91
DYERSBURG      SUNNY     82  74  76 W7        29.99R
SOMERVILLE     SUNNY     84  70  61 NW5       29.99S
COVINGTON      SUNNY     82  72  69 NW6       29.99R
UNION CITY     SUNNY     81  72  74 CALM      29.97R
BOLIVAR        SUNNY     84  68  58 SW6       29.99S
PARIS          SUNNY     82  72  69 CALM      29.98S
HUNTINGDON     SUNNY     82  73  74 W5        29.98R
LEXINGTON      SUNNY     81  73  78 S7        30.00S
SELMER         SUNNY     82  72  69 VRB5      30.01R
SAVANNAH       SUNNY     84  72  65 CALM      30.00R
$$

TNZ008-025-027-028-033-062-065-066-191600-
NORTH MIDDLE TENNESSEE

CITY           SKY/WX    TMP DP  RH WIND       PRES   REMARKS
NASHVILLE      MOSUNNY   81  69  67 S5        30.02R
PORTLAND       SUNNY     82  70  65 VRB5      30.01F
CLARKSVILLE    SUNNY     80  68  66 VRB3      30.00R
SMYRNA         CLOUDY    78  69  73 VRB3      30.03R
COOKEVILLE     SUNNY     77  70  78 SW6       30.05S
GALLATIN       SUNNY     81  70  69 CALM      30.04S
CROSSVILLE     SUNNY     77  64  64 CALM      30.09S
$$

TNZ061-075-076-078-094-096-097-191600-
SOUTH MIDDLE TENNESSEE

CITY           SKY/WX    TMP DP  RH WIND       PRES   REMARKS
FAYETTEVILLE   SUNNY     81  68  65 CALM      30.04S
TULLAHOMA      SUNNY     79  66  65 CALM      30.06S
WINCHESTER     SUNNY     81  70  69 CALM      30.05S
MCMINNVILLE    SUNNY     79  73  83 SE5       30.05S
COLUMBIA       SUNNY     79  72  78 CALM      30.00S
SHELBYVILLE    SUNNY     77  70  78 S5        30.03F
$$

TNZ017-018-042-046-047-191600-
NORTHEAST TENNESSEE

CITY           SKY/WX    TMP DP  RH WIND       PRES   REMARKS
TRI CITIES     MOSUNNY   77  68  73 CALM      30.08R
ELIZABETHTON   MOSUNNY   77  66  69 CALM      30.08S
$$

TNZ012-013-036-069-073-074-191600-
CENTRAL EAST TENNESSEE

CITY           SKY/WX    TMP DP  RH WIND       PRES   REMARKS
KNOXVILLE      MOSUNNY   79  64  60 CALM      30.04S
OAK RIDGE      SUNNY     79  66  64 SE3       30.05F
DOWNTOWN KNOXV SUNNY     79  68  69 CALM      30.04S
GATLINBURG     SUNNY     79  64  61 CALM      30.05R
MORRISTOWN     SUNNY     77  66  69 CALM      30.06S
JACKSBORO      SUNNY     79  68  69 CALM      30.08F
$$

TNZ083-085-099-191600-
SOUTHEAST TENNESSEE

CITY           SKY/WX    TMP DP  RH WIND       PRES   REMARKS
CHATTANOOGA    MOSUNNY   81  66  60 NW5       30.04R
DAYTON         SUNNY     79  72  78 CALM      30.04S
$$

SKY/WX REPORTED AS FAIR MEANS FEW OR NO CLOUDS BELOW
12 THOUSAND FEET.





USA.gov is the U.S. government's official web portal to all federal, state and local government web resources and services.